When you browse on this site, cookies collect data to enhance your experience and personalize the content and advertising you see.
Visit our Privacy Policy to learn more. By continuing to use the site, you agree to this use of cookies and data.
  • en France
  • Liste des pays
  • À 7 jours
  • Température de l'eau
  • Carte satellitaire
  • Carte météo
  • Widgets météo
  • user-avatar
    Se connecter

    Météo par heure à Achtarak

    Ce jour, 16 Novembre, Vendredi

    Heure Température Précipitation Vent Pression Humidité
    00:00 +6°C° 1 mm 2 m/s 656 mmHg 83%
    01:00 +6°C° 1.4 mm 2 m/s 656 mmHg 83%
    02:00 +6°C° 1.4 mm 2 m/s 656 mmHg 84%
    03:00 +7°C° 0 mm 1 m/s 655 mmHg 86%
    04:00 +7°C° 0.6 mm 1 m/s 655 mmHg 85%
    05:00 +7°C° 0.6 mm 1 m/s 656 mmHg 84%
    06:00 +6°C° 0.6 mm 2 m/s 656 mmHg 84%
    07:00 +8°C° 0.5 mm 1 m/s 656 mmHg 82%
    08:00 +8°C° 0.5 mm 1 m/s 656 mmHg 81%
    09:00 +9°C° 0 mm 1 m/s 657 mmHg 79%
    10:00 +8°C° 0.3 mm 2 m/s 657 mmHg 77%
    11:00 +9°C° 0.3 mm 2 m/s 657 mmHg 75%
    12:00 +9°C° 0.3 mm 2 m/s 657 mmHg 74%
    13:00 +10°C° 0.1 mm 2 m/s 657 mmHg 73%
    14:00 +10°C° 0.1 mm 2 m/s 657 mmHg 72%
    15:00 +10°C° 0.1 mm 2 m/s 657 mmHg 71%
    16:00 +9°C° 0.1 mm 2 m/s 658 mmHg 72%
    17:00 +8°C° 0.1 mm 2 m/s 658 mmHg 74%
    18:00 +8°C° 0.1 mm 2 m/s 658 mmHg 75%
    19:00 +7°C° 0.1 mm 2 m/s 658 mmHg 76%
    20:00 +7°C° 0.1 mm 2 m/s 658 mmHg 76%
    21:00 +7°C° 0.1 mm 2 m/s 658 mmHg 76%
    22:00 +7°C° 0.2 mm 2 m/s 658 mmHg 76%
    23:00 +7°C° 0.2 mm 2 m/s 658 mmHg 77%

    Demain, 17 Novembre, Samedi

    Heure Température Précipitation Vent Pression Humidité
    00:00 +7°C° 0.2 mm 2 m/s 658 mmHg 77%
    01:00 +7°C° 0.2 mm 2 m/s 658 mmHg 77%
    02:00 +7°C° 0.2 mm 2 m/s 658 mmHg 77%
    03:00 +7°C° 0.2 mm 2 m/s 659 mmHg 77%
    04:00 +6°C° 0.1 mm 2 m/s 659 mmHg 77%
    05:00 +6°C° 0.1 mm 2 m/s 659 mmHg 78%
    06:00 +6°C° 0.1 mm 2 m/s 659 mmHg 78%
    07:00 +7°C° 0.1 mm 2 m/s 659 mmHg 76%
    08:00 +7°C° 0.1 mm 2 m/s 660 mmHg 74%
    09:00 +8°C° 0.1 mm 2 m/s 660 mmHg 71%
    10:00 +9°C° 0.1 mm 2 m/s 661 mmHg 69%
    11:00 +9°C° 0.1 mm 2 m/s 661 mmHg 66%
    12:00 +10°C° 0.1 mm 2 m/s 661 mmHg 64%
    13:00 +10°C° 0.1 mm 2 m/s 661 mmHg 62%
    14:00 +10°C° 0.1 mm 2 m/s 660 mmHg 60%
    15:00 +10°C° 0.1 mm 2 m/s 660 mmHg 59%
    16:00 +9°C° 0 mm 2 m/s 660 mmHg 61%
    17:00 +7°C° 0 mm 2 m/s 660 mmHg 63%
    18:00 +7°C° 0 mm 1 m/s 660 mmHg 65%
    19:00 +7°C° 0 mm 1 m/s 660 mmHg 65%
    20:00 +6°C° 0 mm 1 m/s 660 mmHg 64%
    21:00 +6°C° 0 mm 1 m/s 660 mmHg 64%
    22:00 +6°C° 0 mm 1 m/s 660 mmHg 64%
    23:00 +6°C° 0 mm 1 m/s 660 mmHg 64%

    Après-demain, 18 Novembre, Dimanche

    Heure Température Précipitation Vent Pression Humidité
    00:00 +5°C° 0 mm 1 m/s 660 mmHg 64%
    01:00 +5°C° 0 mm 1 m/s 660 mmHg 64%
    02:00 +5°C° 0 mm 1 m/s 660 mmHg 65%
    03:00 +5°C° 0 mm 1 m/s 660 mmHg 65%
    04:00 +4°C° 0 mm 1 m/s 660 mmHg 66%
    05:00 +4°C° 0 mm 1 m/s 659 mmHg 67%
    06:00 +4°C° 0 mm 1 m/s 659 mmHg 68%
    07:00 +5°C° 0 mm 1 m/s 659 mmHg 65%
    08:00 +6°C° 0 mm 1 m/s 660 mmHg 63%
    09:00 +6°C° 0 mm 2 m/s 660 mmHg 61%
    10:00 +7°C° 0 mm 2 m/s 659 mmHg 60%
    11:00 +7°C° 0 mm 2 m/s 659 mmHg 59%
    12:00 +8°C° 0 mm 2 m/s 659 mmHg 58%
    13:00 +8°C° 0.1 mm 2 m/s 658 mmHg 58%
    14:00 +8°C° 0.1 mm 2 m/s 658 mmHg 58%
    15:00 +8°C° 0.1 mm 2 m/s 658 mmHg 58%
    16:00 +8°C° 0.1 mm 1 m/s 658 mmHg 60%
    17:00 +7°C° 0.1 mm 1 m/s 658 mmHg 62%
    18:00 +7°C° 0.1 mm 1 m/s 658 mmHg 65%
    19:00 +6°C° 0.1 mm 1 m/s 658 mmHg 66%
    20:00 +6°C° 0.1 mm 1 m/s 658 mmHg 67%
    21:00 +6°C° 0.1 mm 1 m/s 658 mmHg 68%
    22:00 +5°C° 0 mm 1 m/s 658 mmHg 68%
    23:00 +5°C° 0 mm 1 m/s 658 mmHg 68%

    19 Novembre, Lundi

    Heure Température Précipitation Vent Pression Humidité
    00:00 +5°C° 0 mm 1 m/s 658 mmHg 69%
    01:00 +4°C° 0 mm 1 m/s 658 mmHg 69%
    02:00 +4°C° 0 mm 1 m/s 658 mmHg 69%
    03:00 +4°C° 0 mm 1 m/s 657 mmHg 69%
    04:00 +4°C° 0 mm 1 m/s 658 mmHg 70%
    05:00 +4°C° 0 mm 1 m/s 658 mmHg 70%
    06:00 +4°C° 0 mm 1 m/s 658 mmHg 70%
    07:00 +5°C° 0 mm 1 m/s 658 mmHg 68%
    08:00 +6°C° 0 mm 1 m/s 658 mmHg 65%
    09:00 +6°C° 0 mm 2 m/s 659 mmHg 63%
    10:00 +7°C° 0 mm 2 m/s 659 mmHg 61%
    11:00 +8°C° 0 mm 2 m/s 659 mmHg 59%
    12:00 +9°C° 0 mm 2 m/s 658 mmHg 57%
    13:00 +9°C° 0 mm 2 m/s 658 mmHg 56%
    14:00 +9°C° 0 mm 2 m/s 658 mmHg 56%
    15:00 +9°C° 0 mm 2 m/s 658 mmHg 55%
    16:00 +8°C° 0 mm 2 m/s 658 mmHg 57%
    17:00 +7°C° 0 mm 2 m/s 658 mmHg 59%
    18:00 +6°C° 0 mm 2 m/s 658 mmHg 61%
    19:00 +6°C° 0 mm 2 m/s 658 mmHg 61%
    20:00 +6°C° 0 mm 1 m/s 659 mmHg 62%
    21:00 +6°C° 0 mm 1 m/s 659 mmHg 62%
    22:00 +6°C° 0 mm 1 m/s 659 mmHg 63%
    23:00 +6°C° 0 mm 1 m/s 659 mmHg 64%

    20 Novembre, Mardi

    Heure Température Précipitation Vent Pression Humidité
    00:00 +6°C° 0 mm 1 m/s 659 mmHg 65%
    01:00 +6°C° 0 mm 1 m/s 659 mmHg 65%
    02:00 +5°C° 0 mm 1 m/s 659 mmHg 66%
    03:00 +5°C° 0 mm 1 m/s 659 mmHg 66%
    04:00 +5°C° 0 mm 1 m/s 659 mmHg 66%
    05:00 +5°C° 0 mm 1 m/s 659 mmHg 67%
    06:00 +5°C° 0 mm 1 m/s 659 mmHg 67%
    07:00 +6°C° 0 mm 1 m/s 659 mmHg 64%
    08:00 +8°C° 0 mm 1 m/s 660 mmHg 61%
    09:00 +9°C° 0 mm 1 m/s 660 mmHg 58%
    10:00 +10°C° 0 mm 1 m/s 660 mmHg 57%
    11:00 +10°C° 0 mm 2 m/s 660 mmHg 55%
    12:00 +12°C° 0 mm 2 m/s 660 mmHg 53%
    13:00 +12°C° 0 mm 2 m/s 660 mmHg 53%
    14:00 +12°C° 0 mm 1 m/s 659 mmHg 52%
    15:00 +12°C° 0 mm 1 m/s 659 mmHg 51%
    16:00 +10°C° 0 mm 1 m/s 659 mmHg 53%
    17:00 +9°C° 0 mm 1 m/s 660 mmHg 55%
    18:00 +8°C° 0 mm 1 m/s 660 mmHg 57%
    19:00 +8°C° 0 mm 1 m/s 660 mmHg 58%
    20:00 +7°C° 0 mm 1 m/s 660 mmHg 59%
    21:00 +7°C° 0 mm 1 m/s 660 mmHg 59%
    22:00 +7°C° 0 mm 1 m/s 660 mmHg 60%
    23:00 +7°C° 0 mm 1 m/s 660 mmHg 61%

    21 Novembre, Mercredi

    Heure Température Précipitation Vent Pression Humidité
    00:00 +6°C° 0 mm 1 m/s 660 mmHg 61%
    01:00 +6°C° 0 mm 1 m/s 660 mmHg 62%
    02:00 +6°C° 0 mm 1 m/s 660 mmHg 62%
    03:00 +6°C° 0 mm 1 m/s 660 mmHg 62%
    04:00 +6°C° 0 mm 1 m/s 659 mmHg 63%
    05:00 +5°C° 0 mm 1 m/s 659 mmHg 64%
    06:00 +5°C° 0 mm 1 m/s 659 mmHg 64%
    07:00 +6°C° 0 mm 1 m/s 660 mmHg 62%
    08:00 +8°C° 0 mm 1 m/s 660 mmHg 59%
    09:00 +9°C° 0 mm 1 m/s 660 mmHg 57%
    10:00 +10°C° 0 mm 1 m/s 660 mmHg 56%
    11:00 +11°C° 0 mm 1 m/s 660 mmHg 55%
    12:00 +12°C° 0 mm 2 m/s 659 mmHg 54%
    13:00 +12°C° 0 mm 2 m/s 659 mmHg 52%
    14:00 +12°C° 0 mm 2 m/s 658 mmHg 50%
    15:00 +12°C° 0 mm 2 m/s 658 mmHg 49%
    16:00 +10°C° 0 mm 2 m/s 658 mmHg 51%
    17:00 +9°C° 0 mm 2 m/s 657 mmHg 52%
    18:00 +8°C° 0 mm 2 m/s 657 mmHg 54%
    19:00 +8°C° 0 mm 2 m/s 657 mmHg 54%
    20:00 +8°C° 0 mm 2 m/s 657 mmHg 55%
    21:00 +7°C° 0 mm 2 m/s 657 mmHg 55%
    22:00 +7°C° 0 mm 2 m/s 656 mmHg 57%
    23:00 +7°C° 0 mm 2 m/s 656 mmHg 58%
    Voir plus